Toronto City, Ontario

12:15 AM EDT on May 26, 2017 (GMT -0400)
Toronto City

Weather History for CXTO - May, 2013

Change the Weather History Date:

Thursday, May 16, 2013

  Actual Average (CYTZ) Record (CYTZ)
Temperature  
Mean Temperature 62 °F -  
Max Temperature 74 °F 57 °F 74 °F (2013)
Min Temperature 51 °F 45 °F 37 °F (2016)
Degree Days  
Heating Degree Days 2    
Growing Degree Days 12 (Base 50)    
Moisture  
Dew Point 39 °F    
Average Humidity 42    
Maximum Humidity 66    
Minimum Humidity 12    
Precipitation  
Precipitation 0.02 in - - ()
Sea Level Pressure  
Sea Level Pressure 29.83 in    
Wind  
Wind Speed - ()    
Max Wind Speed -    
Max Gust Speed -    
Averages and records for this station are not official NWS values.
T = Trace of Precipitation, MM = Missing Value Source: Averaged Metar Reports

Daily Weather History Graph

Daily Weather History Graph

Search for Another Location

Airport or City:

Trip Planner

Search our weather history database for the weather conditions in past years. The results will help you decide how hot, cold, wet, or windy it might be!

Date:

Astronomy

May. 16, 2013 Rise Set
Actual Time 5:51 AM EDT 8:37 PM EDT
Civil Twilight 5:17 AM EDT 9:10 PM EDT
Nautical Twilight 4:35 AM EDT 9:53 PM EDT
Astronomical Twilight 3:47 AM EDT 10:41 PM EDT
Moon 11:26 AM EDT (5/16) 12:54 AM EDT (5/16)
Length of Visible Light 15h 52m
Length of Day
14h 46m
Waxing Crescent, 35% of the Moon is Illuminated
May 16
Waxing Crescent
May 18
First Quarter
May 25
Full
May 31
Last Quarter
Jun 8
New

Hourly Weather History & Observations

Time (EDT) Temp. Dew Point Humidity Pressure Visibility Wind Dir Wind Speed Gust Speed Precip Events Conditions
12:00 AM 63.0 °F 42.3 °F 47% 29.74 in - North - - N/A   Unknown
1:00 AM 61.5 °F 40.3 °F 46% 29.74 in - North - - N/A   Unknown
2:00 AM 58 °F 41 °F 41% 29.73 in - Calm Calm - -  
2:00 AM 58.5 °F 40.6 °F 52% 29.73 in - North - - N/A   Unknown
3:00 AM 56.1 °F 41.4 °F 58% 29.73 in - North - - N/A   Unknown
4:00 AM 54.1 °F 42.1 °F 64% 29.73 in - North - - N/A   Unknown
5:00 AM 52.7 °F 41.5 °F 66% 29.74 in - North - - N/A   Unknown
6:00 AM 53.4 °F 41.0 °F 63% 29.76 in - North - - N/A   Unknown
7:00 AM 54.3 °F 40.8 °F 60% 29.78 in - North - - 0.02 in   Unknown
8:00 AM 60 °F 41 °F 38% 29.79 in - Calm Calm - -  
8:00 AM 60.4 °F 41.0 °F 49% 29.79 in - North - - N/A   Unknown
9:00 AM 65.7 °F 41.2 °F 41% 29.80 in - North - - N/A   Unknown
10:00 AM 69.6 °F 41.2 °F 36% 29.80 in - North - - N/A   Unknown
11:00 AM 71.6 °F 40.8 °F 33% 29.80 in - North - - N/A   Unknown
12:00 PM 73.6 °F 38.3 °F 28% 29.80 in - North - - N/A   Unknown
1:00 PM 74.1 °F 37.0 °F 26% 29.81 in - North - - N/A   Unknown
2:00 PM 74 °F 32 °F 12% 29.81 in - Calm Calm - -  
2:00 PM 73.8 °F 31.6 °F 21% 29.81 in - North - - N/A   Unknown
3:00 PM 73.6 °F 32.9 °F 23% 29.81 in - North - - N/A   Unknown
4:00 PM 72.5 °F 29.8 °F 21% 29.83 in - North - - N/A   Unknown
5:00 PM 68.4 °F 39.4 °F 35% 29.86 in - North - - N/A   Unknown
6:00 PM 64.4 °F 39.6 °F 40% 29.89 in - North - - N/A   Unknown
7:00 PM 61.7 °F 38.8 °F 43% 29.92 in - North - - N/A   Unknown
8:00 PM 60 °F 39 °F 34% 29.95 in - Calm Calm - -  
8:00 PM 59.5 °F 38.8 °F 46% 29.95 in - North - - N/A   Unknown
9:00 PM 57.2 °F 37.6 °F 48% 29.99 in - North - - N/A   Unknown
10:00 PM 55.8 °F 36.9 °F 49% 30.01 in - North - - N/A   Unknown
11:00 PM 54.5 °F 37.0 °F 52% 30.03 in - North - - N/A   Unknown